Regional Weather Roundup
Issued by NWS

Home | Current Version | Previous Version | Graphics & Text | Print | Product List | Glossary On
Versions: 1 2 3 4 5 6 7 8 9 10 11 12 13 14 15 16 17 18 19 20 21 22 23 24 25 26 27 28 29 30 31 32 33 34 35 36 37 38 39 40 41 42 43 44 45 46 47 48 49 50
000
ASUS43 KDMX 221503
RWRIA

WEATHER ROUNDUP FOR IOWA
NATIONAL WEATHER SERVICE DES MOINES IA
1000 AM CDT FRI JUL 22 2016

NOTE: "FAIR" INDICATES FEW OR NO CLOUDS BELOW 12,000 FEET WITH NO
SIGNIFICANT WEATHER AND/OR OBSTRUCTIONS TO VISIBILITY.

* - THESE STATIONS ARE NOT NWS STATIONS...THUS NOT UNDER NWS
QUALITY CONTROL.  THEY ALSO DO NOT REPORT WEATHER SUCH
AS PRECIPITATION OR FOG.

IAZ001>003-012>014-020>022-031>034-043>046-221600-
   NORTHWEST IOWA

CITY           SKY/WX    TMP DP  RH WIND       PRES   REMARKS
CARROLL *      SUNNY     84  77  79 S12G17    29.96F HX  94
CHEROKEE *     SUNNY     85  80  85 E3        29.96R HX  99
DENISON *      CLOUDY    84  75  74 S12G17    29.94S HX  92
LE MARS *      SUNNY     86  79  79 E7        29.94F HX  99
SHELDON *      CLOUDY    82  81  94 E8G15     29.96R HX  95
SIOUX CITY     SUNNY     87  77  72 E7        29.93R HX  99
SPENCER        CLOUDY    80  78  94 E9        29.98S HX  88
STORM LAKE *   SUNNY     84  79  84 SE10      29.98S HX  96
$$

IAZ055>058-069>071-079>083-090>094-221600-
   SOUTHWEST IOWA

CITY           SKY/WX    TMP DP  RH WIND       PRES   REMARKS
ATLANTIC *     CLOUDY    86  75  70 S12       29.98S HX  95
CLARINDA *       N/A     86  77  74 MISG      30.01F HX  97
COUNCIL BLFS * SUNNY     82  75  78 SE8       29.96S HX  89
CRESTON *      CLOUDY    79  73  83 S16G23    30.04R HX  82
HARLAN  *      CLOUDY    84  75  74 SE12      30.00S HX  92
LAMONI         CLOUDY    76  70  82 S22G31    30.04F
RED OAK *      SUNNY     84  75  74 SE13      29.98F HX  92
SHENANDOAH *   CLOUDY    86  77  74 SE12      29.98R HX  97
$$

IAZ047>049-059>061-072>074-084-221600-
   CENTRAL IOWA

CITY           SKY/WX    TMP DP  RH WIND       PRES   REMARKS
AMES           CLOUDY    81  75  82 S13G22    29.99S HX  87
ANKENY *         N/A    N/A N/A N/A MISG        N/A
BOONE *        CLOUDY    77  73  88 S10G18    29.99S
CHARITON *       N/A    N/A N/A N/A MISG        N/A
DES MOINES     PTSUNNY   79  72  79 S16       30.00R HX  82
GRINNELL*      CLOUDY    78  71  77 S10G17    30.03R HX  81
KNOXVILLE *    PTSUNNY   77  70  78 S13       30.01R
MARSHALLTOWN   MOSUNNY   80  73  79 S10       30.00S HX  84
NEWTON *       CLOUDY    79  73  83 S16G23    30.00S HX  82
PELLA *        CLOUDY    78  70  75 S10G17    30.03R HX  81
PERRY *          N/A     80  76  88 S13G21    29.99S HX  86
$$

IAZ004>006-015-016-023>025-035-036-221600-
   NORTH CENTRAL IOWA

CITY           SKY/WX    TMP DP  RH WIND       PRES   REMARKS
ALGONA *       SUNNY     82  77  83 S9        29.99S HX  91
ESTHERVILLE    CLOUDY    79  79 100 SE7       29.98F HX  84
FORT DODGE *   CLOUDY    81  73  78 S8        29.99F HX  85
MASON CITY     CLOUDY    80  74  81 S7        30.01F HX  85
FOREST CITY *    N/A     79  73  83 SE7       30.00F HX  82
IOWA FALLS *     N/A     81  73  75 S12       30.01F HX  86
$$

IAZ007>011-017>019-026>030-037>042-050>054-066-221600-
   NORTHEAST IOWA

CITY           SKY/WX    TMP DP  RH WIND       PRES   REMARKS
CEDAR RAPIDS   PTSUNNY   76  74  93 S9        30.03R
CHARLES CITY * PTSUNNY   79  75  89 S7        30.02S HX  82
DECORAH *      CLOUDY    77  73  88 S5        30.02F
DUBUQUE        MOSUNNY   75  71  87 SW6       30.04S
MONTICELLO *   MOSUNNY   77  72  83 SW6       30.03R
OELWEIN *      CLOUDY    79  73  83 SW8       30.03S HX  82
WATERLOO       MOSUNNY   81  72  74 S8        29.99F HX  85
$$

IAZ064-065-067-068-078-221600-
   EAST CENTRAL IOWA

CITY           SKY/WX    TMP DP  RH WIND       PRES   REMARKS
DAVENPORT      CLOUDY    75  68  78 SW9       30.05R
IOWA CITY      PTSUNNY   75  69  81 S10G17    30.04S
MT. PLEASANT * CLOUDY    73  73  99 S6        30.03S
MUSCATINE *    CLOUDY    75  70  83 SW10      30.03S
QUAD CITIES    CLOUDY    77  69  76 SW9       30.04R
$$

IAZ062-063-075>077-085>089-095>099-221600-
   SOUTHEAST IOWA

CITY           SKY/WX    TMP DP  RH WIND       PRES   REMARKS
BURLINGTON     CLOUDY    72  70  93 S8        30.03F
FAIRFIELD *    CLOUDY    72  70  94 S7        30.02F
KEOKUK *       CLOUDY    72  70  94 SW9       30.04S
CENTERVILLE *    N/A     73  70  88 SE12      30.08R
OTTUMWA        CLOUDY    76  69  79 SW6       30.00F
WASHINGTON *   CLOUDY    72  70  94 S6        30.03F
$$

ABBREVIATIONS USED IN REMARKS
   TC - TEMPERATURES IN CELSIUS
  WCI - WIND CHILL INDEX
   HX - HEAT INDEX
  VSB - VISIBILITY
$$





USA.gov is the U.S. government's official web portal to all federal, state and local government web resources and services.